Temp
2 2 2 2 3 3 3 3 3 3 3 3 3 3 3 3 3 3 3 3 3 3 4 4 4 4 4 4 4 4 4 4 5 5 5 5 5 6 6 6 6 6 7 7 7 7 7 8 8 8 8 8 8 8 8 8 8 7 7 7 7 7 7 7 7 6 6 6 6
2 2 2 2 2 2 3 3 3 3 3 3 2 2 2 2 3 3 3 3 3 3 3 3 3 3 3 3 3 4 4 4 4 4 4 5 5 5 5 5 5 6 6 6 6 7 7 7 7 7 7 7 7 7 7 7 7 7 6 6 6 6 6 6 6 6 6 5 5
1 1 2 2 2 2 2 2 2 2 2 2 2 2 2 2 2 3 3 3 3 3 3 3 3 3 3 3 3 3 3 4 4 4 4 4 4 4 4 5 5 5 5 5 5 6 6 6 6 6 6 6 6 6 6 6 6 6 5 5 5 5 5 5 5 5 5 5 5
1 1 1 1 2 2 2 2 2 2 2 2 1 1 2 2 2 2 3 3 3 3 3 3 3 3 3 3 3 3 3 3 3 3 4 4 4 4 4 4 4 4 4 4 5 5 5 5 5 5 5 5 5 5 5 5 5 5 5 5 5 5 5 5 5 4 4 4 4
0 1 1 1 1 1 1 1 1 1 1 1 1 1 1 2 2 2 2 2 2 2 2 2 2 2 2 2 2 2 2 3 3 3 3 3 3 3 3 3 3 4 4 4 4 4 4 4 4 4 4 4 4 4 4 4 4 4 4 4 4 4 4 4 4 4 4 4 4
-0 0 0 0 1 1 1 1 1 1 1 1 1 1 1 1 2 2 2 2 2 2 2 2 2 2 1 1 1 1 2 2 2 2 2 2 2 2 2 2 2 3 3 3 3 3 3 3 2 2 2 2 3 3 3 4 4 4 4 4 4 4 4 4 4 4 4 4 4
-0 -0 -0 0 0 0 1 1 1 1 1 1 1 1 1 1 1 1 1 1 1 1 1 1 1 1 1 1 1 1 1 1 1 1 2 2 2 2 1 1 1 1 2 2 2 2 2 2 2 2 2 2 2 2 3 3 3 3 3 3 3 4 4 4 4 4 4 4 4
-1 -1 -1 -0 -0 -0 -0 -0 -0 0 0 0 0 0 0 0 0 0 0 1 1 1 1 1 0 0 0 0 0 0 0 0 0 1 1 1 1 1 1 1 1 1 1 2 2 2 2 1 1 1 1 1 1 2 2 2 2 3 3 3 3 3 3 3 3 3 3 3 3
-1 -1 -1 -1 -1 -1 -1 -1 -1 -0 -0 -0 -0 -0 -0 -0 -0 -0 0 0 0 0 0 0 0 0 -0 -0 0 0 0 0 1 1 1 0 0 0 0 0 1 1 1 1 1 1 1 1 1 1 1 1 1 1 2 2 2 2 2 3 3 3 3 3 3 3 3 3 3
-1 -1 -1 -1 -1 -1 -1 -1 -1 -1 -1 -0 -0 -1 -1 -1 -0 -0 -0 -0 -0 -0 -0 -0 -0 -0 -0 -0 -0 -0 0 0 0 0 0 0 0 0 0 0 1 1 1 1 1 1 1 1 1 1 1 1 1 1 1 1 1 2 2 2 2 2 2 2 2 2 2 2 2
-1 -1 -1 -1 -1 -1 -1 -1 -1 -1 -1 -1 -1 -1 -1 -1 -1 -1 -1 -1 -0 -1 -1 -1 -1 -1 -1 -1 -1 -0 -0 -0 0 0 0 0 0 0 1 1 1 1 1 1 1 1 1 1 1 1 1 1 1 1 1 1 1 1 1 2 2 2 2 2 2 2 2 2 2
-1 -1 -1 -1 -1 -1 -1 -1 -1 -1 -1 -1 -1 -1 -1 -1 -1 -1 -1 -1 -1 -1 -1 -1 -1 -1 -1 -1 -1 -1 -1 -1 -1 -0 -0 -0 0 0 0 0 1 1 1 1 1 1 1 1 1 1 1 1 1 1 1 1 1 1 1 1 1 1 2 2 2 2 2 2 2
-1 -1 -1 -1 -1 -1 -1 -1 -1 -1 -1 -1 -1 -1 -1 -1 -1 -1 -2 -2 -1 -1 -1 -1 -2 -1 -1 -1 -1 -1 -1 -1 -1 -1 -0 -0 -0 -0 -0 0 0 0 0 0 0 1 1 1 1 1 1 1 1 1 1 1 1 1 1 1 1 2 2 2 2 2 2 2 2
-1 -2 -2 -2 -2 -2 -1 -1 -1 -1 -1 -1 -1 -1 -1 -1 -2 -2 -2 -2 -2 -2 -2 -2 -2 -1 -1 -2 -2 -1 -1 -1 -1 -1 -1 -1 -0 -0 -0 -0 -0 0 0 0 0 0 0 1 1 1 1 1 1 1 1 1 1 1 1 1 1 1 1 1 1 1 1 2 2
-2 -2 -2 -2 -2 -2 -2 -1 -1 -1 -1 -1 -1 -1 -1 -2 -2 -2 -2 -2 -2 -2 -2 -2 -2 -1 -1 -2 -2 -2 -2 -1 -1 -1 -1 -1 -1 -0 -0 -0 -0 -0 0 0 0 0 0 0 0 1 1 1 1 0 0 1 1 1 1 1 1 1 1 1 1 1 1 1 2
-2 -2 -2 -2 -2 -2 -2 -1 -1 -1 -2 -2 -2 -2 -2 -2 -2 -2 -2 -2 -2 -2 -2 -2 -2 -2 -2 -2 -2 -2 -1 -1 -1 -1 -1 -1 -0 -0 -0 -0 -0 0 0 0 0 0 0 0 0 0 0 0 0 0 0 1 1 1 1 1 1 1 1 1 1 1 1 1 1
-2 -2 -2 -2 -2 -2 -2 -2 -2 -2 -2 -2 -2 -2 -2 -2 -2 -2 -2 -2 -2 -2 -2 -1 -1 -2 -2 -2 -2 -1 -1 -1 -1 -1 -0 -0 -0 -0 -0 0 0 0 0 0 0 0 0 0 0 1 1 1 1 1 1 1 1 1 1 1 1 1 1 1 1 1 1 1 1
-2 -2 -2 -2 -2 -2 -2 -2 -2 -2 -2 -2 -2 -2 -2 -2 -2 -2 -2 -2 -2 -2 -2 -1 -2 -2 -2 -2 -2 -1 -1 -1 -1 -0 -0 0 0 0 0 0 0 0 0 0 0 0 0 1 1 1 1 1 1 1 1 1 1 1 1 1 1 1 1 1 1 1 1 1 1
-2 -2 -2 -2 -2 -2 -2 -2 -2 -2 -2 -2 -2 -1 -1 -1 -1 -1 -1 -2 -2 -2 -2 -2 -2 -2 -2 -2 -1 -1 -1 -1 -1 -0 -0 0 1 1 1 1 1 1 1 0 0 1 1 1 1 1 1 1 1 1 1 1 1 1 1 1 1 1 1 1 1 1 1 1 1
-2 -2 -2 -2 -2 -2 -2 -2 -2 -2 -2 -2 -1 -1 -1 -1 -1 -2 -2 -2 -2 -2 -2 -2 -2 -2 -2 -1 -1 -1 -1 -1 -0 -0 0 0 1 1 1 1 1 1 1 1 1 1 1 1 1 1 0 0 0 0 0 0 0 0 0 0 0 1 1 1 1 1 1 1 1
-2 -2 -2 -2 -2 -2 -2 -2 -2 -2 -2 -1 -1 -1 -1 -1 -1 -2 -2 -2 -2 -2 -2 -2 -2 -2 -1 -1 -1 -1 -1 -0 -0 0 0 0 0 1 1 1 1 1 1 1 1 1 1 1 1 0 0 0 0 0 0 0 0 0 0 0 0 0 0 0 0 0 0 0 0
-2 -2 -2 -2 -2 -2 -2 -2 -1 -1 -1 -1 -1 -1 -1 -1 -2 -2 -2 -2 -2 -2 -2 -2 -2 -2 -1 -1 -1 -1 -1 -0 -0 -0 0 0 0 1 1 1 1 1 1 1 1 1 1 0 0 0 0 0 -0 -0 -0 -0 0 0 0 0 0 0 0 0 0 0 0 0 0
-1 -2 -2 -2 -2 -2 -2 -1 -1 -1 -1 -1 -1 -1 -1 -2 -2 -2 -2 -2 -2 -2 -2 -2 -2 -2 -1 -1 -1 -1 -1 -1 -0 -0 -0 -0 0 0 0 0 0 0 0 0 0 0 0 0 0 0 0 -0 -0 -0 -0 -0 -0 -0 -0 -0 -0 -0 -0 0 0 0 0 0 0
-1 -1 -2 -2 -2 -2 -2 -1 -1 -1 -1 -1 -1 -2 -2 -2 -2 -2 -2 -2 -2 -2 -2 -2 -2 -2 -2 -1 -1 -1 -1 -1 -0 -0 -0 -0 -0 -0 0 0 0 0 0 0 0 0 0 0 0 -0 -0 -0 -0 -0 -0 -0 -0 -0 -0 -0 -0 -0 -0 -0 -0 -0 -0 -0 0
-1 -1 -2 -2 -2 -2 -2 -2 -2 -2 -2 -2 -2 -2 -2 -2 -2 -2 -2 -2 -2 -2 -2 -2 -2 -2 -2 -2 -2 -2 -1 -1 -1 -1 -1 -1 -0 -0 -0 -0 0 0 0 0 0 0 -0 -0 -0 -0 -0 -0 -0 -0 -1 -1 -0 -0 -0 -0 -0 -0 -0 -0 -0 -0 -0 -0 -0
-1 -1 -2 -2 -2 -2 -2 -2 -2 -2 -2 -2 -2 -2 -2 -2 -2 -2 -2 -2 -2 -2 -2 -2 -2 -2 -2 -2 -3 -2 -2 -2 -1 -1 -1 -1 -1 -1 -0 -0 0 0 0 0 0 -0 -0 -0 -0 -0 -0 -0 -0 -1 -1 -1 -1 -1 -1 -1 -1 -1 -1 -1 -1 -1 -1 -1 -0
-1 -1 -2 -2 -2 -2 -2 -2 -2 -2 -2 -2 -2 -2 -2 -2 -2 -2 -2 -2 -2 -2 -2 -2 -2 -2 -2 -3 -3 -2 -2 -2 -2 -1 -1 -1 -1 -1 -0 -0 0 0 0 -0 -0 -0 -0 -0 -0 -0 -0 -0 -0 -1 -1 -1 -1 -1 -1 -1 -1 -1 -1 -1 -1 -1 -1 -1 -1
-1 -2 -2 -2 -2 -2 -2 -2 -2 -2 -2 -2 -2 -2 -2 -2 -2 -2 -2 -2 -2 -2 -2 -2 -2 -2 -2 -2 -2 -2 -2 -2 -2 -2 -2 -1 -1 -1 -1 -1 -0 -0 -0 -0 -0 -0 -0 -0 -0 -0 -0 -0 -1 -1 -1 -1 -1 -1 -1 -1 -1 -1 -1 -1 -1 -1 -1 -1 -1
-2 -2 -2 -2 -2 -2 -2 -2 -2 -2 -2 -2 -2 -2 -2 -2 -2 -2 -2 -2 -2 -2 -2 -2 -2 -2 -2 -2 -2 -2 -2 -2 -2 -2 -2 -2 -2 -2 -1 -1 -1 -1 -1 -1 -0 -0 -0 -0 -0 -0 -0 -1 -1 -1 -1 -1 -1 -1 -1 -1 -1 -1 -1 -1 -1 -1 -1 -1 -1
-2 -2 -2 -2 -2 -2 -2 -2 -2 -2 -2 -2 -2 -2 -2 -2 -2 -2 -2 -2 -2 -2 -2 -2 -2 -2 -2 -2 -2 -2 -2 -2 -3 -3 -3 -3 -3 -2 -2 -2 -1 -1 -1 -1 -1 -1 -1 -0 -1 -1 -1 -1 -1 -1 -1 -1 -1 -1 -1 -1 -1 -1 -1 -1 -1 -1 -1 -1 -2
-2 -2 -2 -2 -2 -2 -2 -2 -2 -2 -2 -2 -2 -2 -2 -2 -2 -2 -2 -2 -2 -1 -1 -1 -2 -2 -2 -2 -2 -2 -2 -3 -3 -3 -3 -3 -3 -3 -3 -2 -2 -2 -1 -1 -1 -1 -1 -1 -1 -1 -1 -1 -1 -1 -1 -1 -1 -1 -1 -1 -1 -1 -1 -1 -1 -1 -2 -2 -2
-2 -2 -2 -2 -2 -2 -2 -2 -2 -2 -2 -2 -2 -2 -2 -2 -2 -2 -2 -1 -1 -1 -1 -1 -1 -2 -2 -2 -2 -2 -2 -2 -3 -3 -3 -3 -3 -3 -3 -3 -2 -2 -2 -1 -1 -1 -1 -1 -1 -1 -1 -1 -1 -1 -1 -1 -1 -1 -1 -1 -1 -2 -2 -2 -2 -2 -2 -2 -2
-2 -2 -2 -2 -2 -2 -2 -2 -2 -2 -2 -2 -2 -2 -2 -2 -2 -2 -1 -1 -1 -1 -1 -1 -1 -1 -1 -2 -2 -2 -2 -2 -2 -3 -3 -3 -3 -3 -3 -3 -3 -2 -2 -2 -1 -1 -1 -1 -1 -1 -1 -1 -1 -2 -2 -2 -2 -2 -2 -2 -2 -2 -2 -2 -2 -2 -2 -2 -2
-2 -2 -2 -2 -2 -2 -2 -2 -2 -2 -2 -2 -2 -2 -2 -2 -2 -1 -1 -1 -1 -1 -1 -1 -1 -1 -1 -1 -1 -1 -2 -2 -2 -2 -3 -3 -3 -3 -3 -3 -3 -3 -3 -2 -2 -2 -2 -2 -2 -2 -1 -2 -2 -2 -2 -2 -2 -2 -2 -2 -2 -2 -2 -2 -2 -2 -2 -2 -2
-2 -2 -2 -2 -2 -2 -2 -2 -2 -2 -2 -2 -2 -2 -2 -2 -1 -1 -1 -1 -1 -1 -1 -1 -1 -1 -1 -1 -1 -1 -1 -2 -2 -2 -2 -3 -3 -3 -3 -3 -3 -3 -3 -3 -2 -2 -2 -2 -2 -2 -2 -2 -2 -2 -2 -2 -2 -2 -2 -2 -2 -2 -2 -2 -2 -2 -2 -2 -2
-2 -2 -2 -2 -2 -2 -2 -2 -2 -2 -2 -2 -2 -2 -2 -1 -1 -1 -1 -1 -1 -1 -1 -1 -1 -1 -1 -1 -1 -1 -1 -2 -2 -2 -2 -3 -3 -3 -4 -4 -4 -3 -3 -3 -3 -2 -3 -3 -3 -3 -2 -2 -2 -2 -2 -2 -2 -2 -3 -3 -2 -2 -2 -2 -2 -2 -2 -2 -3
-2 -2 -2 -2 -2 -2 -2 -2 -2 -2 -2 -2 -2 -2 -1 -1 -1 -1 -1 -1 -1 -1 -1 -1 -1 -1 -1 -1 -1 -1 -1 -2 -2 -2 -2 -3 -3 -4 -4 -4 -4 -4 -4 -4 -4 -4 -3 -3 -3 -3 -3 -3 -3 -3 -3 -3 -3 -3 -3 -3 -3 -3 -2 -2 -3 -3 -3 -3 -3
-2 -2 -2 -2 -2 -2 -2 -2 -2 -2 -2 -2 -2 -1 -1 -1 -1 -1 -1 -1 -1 -1 -1 -1 -1 -1 -1 -2 -2 -2 -2 -2 -2 -2 -2 -3 -3 -3 -4 -4 -4 -4 -4 -4 -5 -4 -3 -3 -3 -3 -3 -3 -3 -3 -3 -3 -3 -3 -3 -3 -3 -3 -3 -3 -3 -3 -3 -3 -3
-2 -2 -2 -2 -2 -2 -2 -2 -2 -2 -2 -2 -2 -1 -1 -1 -1 -1 -1 -1 -1 -1 -1 -1 -1 -1 -1 -2 -2 -2 -2 -2 -2 -2 -2 -3 -3 -3 -4 -4 -4 -5 -5 -4 -5 -5 -4 -3 -3 -3 -3 -3 -3 -3 -3 -3 -3 -3 -3 -3 -3 -3 -3 -3 -4 -4 -4 -3 -3
-2 -2 -2 -2 -2 -2 -2 -2 -2 -2 -2 -2 -1 -1 -1 -1 -1 -1 -1 -1 -1 -1 -1 -1 -1 -1 -1 -1 -2 -2 -2 -2 -2 -2 -2 -2 -3 -3 -3 -4 -4 -4 -5 -4 -5 -5 -4 -4 -3 -3 -3 -3 -3 -3 -3 -3 -3 -3 -4 -4 -4 -4 -4 -4 -4 -4 -4 -3 -3
-2 -2 -2 -2 -2 -2 -2 -2 -2 -2 -2 -2 -1 -1 -1 -1 -1 -1 -1 -1 -1 -1 -1 -1 -1 -1 -1 -1 -1 -1 -2 -2 -2 -2 -2 -2 -2 -3 -3 -4 -4 -4 -5 -5 -4 -5 -5 -5 -4 -4 -4 -3 -4 -4 -4 -4 -4 -4 -4 -4 -4 -4 -4 -4 -4 -4 -3 -3 -3
Height
1487 1488 1488 1488 1488 1489 1489 1489 1489 1489 1489 1489 1489 1489 1489 1489 1489 1489 1489 1489 1489 1490 1490 1490 1490 1490 1490 1490 1490 1490 1490 1490 1490 1491 1491 1491 1491 1491 1491 1491 1491 1491 1491 1491 1492 1492 1492 1492 1492 1492 1492 1492 1493 1493 1493 1493 1493 1493 1493 1494 1494 1494 1494 1494 1494 1494 1494 1494 1495
1487 1488 1488 1488 1488 1489 1489 1489 1489 1489 1489 1489 1489 1489 1489 1489 1489 1489 1489 1489 1489 1489 1489 1489 1489 1489 1490 1490 1490 1490 1490 1490 1490 1490 1490 1490 1490 1490 1490 1490 1490 1490 1490 1490 1490 1490 1491 1491 1491 1491 1491 1491 1491 1491 1491 1491 1492 1492 1492 1492 1492 1492 1493 1493 1493 1493 1493 1493 1493
1487 1488 1488 1488 1488 1488 1488 1488 1488 1489 1489 1489 1489 1489 1489 1489 1489 1489 1489 1489 1489 1489 1489 1489 1489 1489 1489 1489 1489 1489 1489 1489 1489 1489 1489 1489 1489 1489 1490 1490 1490 1490 1490 1490 1490 1490 1490 1490 1490 1490 1490 1490 1490 1490 1490 1490 1491 1491 1491 1491 1491 1491 1492 1492 1492 1492 1492 1492 1492
1488 1488 1488 1488 1488 1488 1489 1489 1489 1489 1489 1489 1489 1489 1488 1489 1489 1489 1489 1489 1489 1489 1489 1489 1489 1489 1489 1489 1489 1489 1489 1489 1489 1489 1489 1489 1489 1489 1489 1489 1489 1489 1489 1489 1489 1489 1489 1489 1489 1489 1489 1489 1489 1490 1490 1490 1490 1490 1490 1491 1491 1491 1491 1491 1491 1491 1491 1492 1492
1488 1488 1489 1489 1489 1489 1489 1489 1489 1489 1489 1489 1489 1489 1488 1488 1488 1488 1488 1489 1489 1489 1489 1489 1489 1489 1489 1489 1489 1489 1489 1489 1489 1489 1489 1489 1489 1489 1489 1489 1489 1489 1489 1489 1489 1489 1489 1489 1489 1489 1489 1489 1489 1489 1489 1489 1490 1490 1490 1490 1490 1490 1490 1491 1491 1491 1491 1491 1491
1489 1489 1489 1489 1489 1489 1489 1489 1489 1489 1489 1489 1489 1489 1488 1488 1488 1489 1489 1489 1489 1489 1489 1489 1489 1489 1489 1489 1489 1489 1489 1489 1489 1489 1489 1489 1489 1489 1489 1489 1489 1489 1489 1489 1489 1489 1489 1489 1489 1489 1489 1489 1489 1489 1489 1489 1489 1489 1490 1490 1490 1490 1490 1490 1490 1490 1490 1491 1491
1489 1489 1489 1489 1489 1489 1489 1489 1489 1489 1489 1489 1489 1489 1489 1489 1489 1489 1489 1489 1489 1489 1489 1489 1489 1489 1489 1489 1489 1489 1489 1489 1489 1489 1489 1489 1489 1489 1489 1489 1489 1489 1489 1489 1489 1489 1489 1488 1489 1489 1489 1489 1489 1489 1489 1489 1489 1489 1489 1489 1489 1489 1490 1490 1490 1490 1490 1490 1490
1490 1490 1490 1489 1489 1489 1489 1489 1489 1489 1489 1489 1489 1489 1489 1489 1489 1489 1489 1489 1489 1489 1489 1489 1489 1489 1489 1489 1489 1489 1489 1489 1489 1489 1489 1489 1489 1489 1489 1489 1489 1489 1489 1489 1489 1489 1489 1489 1489 1489 1489 1489 1489 1489 1489 1489 1489 1489 1489 1489 1489 1489 1489 1489 1489 1489 1489 1490 1490
1491 1490 1490 1490 1490 1490 1490 1490 1490 1490 1489 1489 1489 1489 1489 1489 1489 1489 1489 1489 1489 1489 1489 1489 1489 1489 1489 1489 1489 1489 1490 1490 1490 1490 1489 1489 1489 1489 1489 1489 1489 1489 1489 1489 1489 1489 1489 1489 1489 1489 1489 1489 1489 1489 1489 1489 1489 1489 1489 1489 1489 1489 1489 1489 1489 1489 1489 1489 1490
1491 1491 1490 1490 1490 1490 1490 1490 1490 1490 1490 1490 1489 1489 1489 1489 1489 1489 1489 1489 1489 1489 1489 1489 1489 1489 1490 1490 1490 1490 1490 1490 1490 1490 1490 1489 1489 1489 1489 1489 1489 1489 1489 1489 1489 1489 1489 1489 1489 1489 1489 1489 1489 1489 1489 1489 1489 1489 1489 1489 1489 1489 1489 1489 1489 1489 1489 1489 1489
1491 1491 1491 1491 1490 1490 1490 1490 1490 1490 1490 1490 1490 1490 1490 1490 1490 1490 1490 1490 1490 1490 1490 1490 1490 1490 1490 1490 1490 1490 1490 1490 1490 1490 1490 1490 1490 1489 1489 1489 1489 1489 1489 1489 1489 1489 1489 1489 1489 1489 1489 1489 1489 1489 1489 1489 1489 1489 1489 1489 1489 1489 1489 1489 1489 1490 1490 1490 1490
1492 1492 1491 1491 1491 1491 1491 1491 1491 1490 1490 1490 1490 1490 1490 1490 1490 1490 1490 1491 1491 1491 1490 1490 1491 1491 1491 1491 1491 1491 1491 1491 1491 1491 1490 1490 1490 1490 1490 1489 1489 1489 1489 1489 1489 1489 1489 1489 1489 1489 1490 1490 1490 1490 1490 1490 1490 1490 1490 1490 1490 1490 1490 1490 1490 1490 1490 1490 1490
1492 1492 1492 1492 1492 1492 1491 1491 1491 1491 1491 1491 1491 1491 1491 1491 1491 1491 1491 1491 1491 1491 1491 1491 1491 1491 1491 1491 1491 1491 1491 1491 1491 1491 1491 1490 1490 1490 1490 1490 1490 1490 1489 1489 1489 1489 1489 1489 1490 1490 1490 1490 1490 1490 1490 1490 1490 1490 1490 1490 1490 1490 1490 1490 1490 1490 1490 1490 1490
1493 1493 1492 1492 1492 1492 1492 1492 1492 1491 1491 1491 1491 1491 1491 1491 1491 1492 1492 1492 1492 1492 1492 1492 1492 1492 1492 1492 1492 1492 1492 1492 1492 1491 1491 1491 1491 1490 1490 1490 1490 1490 1490 1490 1490 1490 1490 1490 1490 1490 1490 1491 1491 1491 1491 1491 1491 1491 1491 1491 1491 1491 1491 1491 1491 1491 1491 1491 1490
1494 1493 1493 1493 1493 1493 1493 1492 1492 1492 1492 1492 1492 1492 1492 1492 1492 1492 1492 1492 1492 1492 1492 1492 1492 1492 1492 1492 1492 1492 1492 1492 1492 1492 1492 1491 1491 1491 1491 1491 1491 1491 1490 1490 1491 1491 1491 1491 1491 1491 1491 1491 1492 1492 1492 1492 1492 1492 1492 1492 1491 1491 1491 1491 1491 1491 1491 1491 1490
1494 1494 1494 1494 1494 1493 1493 1493 1493 1493 1493 1492 1492 1492 1492 1492 1492 1492 1493 1493 1493 1493 1493 1493 1493 1493 1493 1493 1493 1493 1493 1493 1492 1492 1492 1492 1492 1492 1492 1491 1491 1491 1491 1491 1492 1492 1492 1492 1492 1492 1492 1492 1492 1492 1493 1493 1492 1492 1492 1492 1492 1492 1492 1492 1491 1491 1491 1491 1490
1495 1494 1494 1494 1494 1494 1494 1493 1493 1493 1493 1493 1493 1493 1493 1493 1493 1493 1493 1493 1493 1493 1493 1493 1493 1493 1493 1493 1493 1493 1493 1493 1493 1493 1492 1492 1492 1492 1492 1492 1492 1492 1492 1493 1493 1493 1493 1493 1493 1493 1493 1493 1493 1493 1493 1493 1493 1493 1493 1493 1492 1492 1492 1492 1492 1491 1491 1491 1491
1495 1495 1494 1494 1494 1494 1494 1494 1493 1493 1493 1493 1493 1493 1493 1493 1493 1493 1494 1494 1494 1494 1494 1494 1494 1494 1494 1494 1494 1494 1494 1494 1493 1493 1493 1493 1493 1493 1493 1493 1493 1493 1494 1494 1494 1494 1494 1494 1494 1494 1494 1494 1494 1494 1494 1494 1494 1493 1493 1493 1493 1493 1492 1492 1492 1492 1492 1491 1491
1495 1495 1495 1494 1494 1494 1494 1494 1494 1494 1493 1493 1493 1493 1493 1494 1494 1494 1494 1494 1494 1494 1494 1494 1494 1494 1494 1494 1494 1494 1494 1494 1494 1494 1494 1494 1494 1494 1494 1494 1494 1494 1494 1494 1494 1494 1494 1494 1494 1494 1494 1494 1494 1494 1494 1494 1494 1494 1494 1494 1493 1493 1493 1493 1492 1492 1492 1492 1491
1496 1495 1495 1495 1494 1494 1494 1494 1494 1494 1494 1494 1494 1494 1494 1494 1494 1494 1494 1494 1495 1495 1495 1495 1495 1495 1495 1495 1495 1495 1494 1494 1494 1494 1494 1494 1495 1495 1495 1495 1495 1495 1495 1495 1495 1495 1495 1495 1495 1495 1495 1495 1495 1494 1494 1494 1494 1494 1494 1494 1494 1493 1493 1493 1493 1492 1492 1492 1492
1496 1496 1495 1495 1495 1495 1495 1494 1494 1494 1494 1494 1494 1494 1494 1495 1495 1495 1495 1495 1495 1495 1495 1495 1495 1495 1495 1495 1495 1495 1495 1495 1495 1495 1495 1495 1495 1495 1495 1495 1495 1496 1496 1496 1496 1496 1495 1495 1495 1495 1495 1495 1495 1495 1495 1494 1494 1494 1494 1494 1494 1494 1493 1493 1493 1493 1492 1492 1492
1497 1496 1496 1495 1495 1495 1495 1495 1495 1495 1495 1495 1495 1495 1495 1496 1496 1496 1496 1496 1496 1496 1496 1496 1496 1496 1495 1495 1495 1495 1495 1495 1496 1496 1496 1496 1496 1496 1496 1496 1496 1496 1496 1496 1496 1496 1496 1496 1496 1496 1495 1495 1495 1495 1495 1495 1495 1494 1494 1494 1494 1494 1494 1493 1493 1493 1493 1492 1492
1497 1496 1496 1495 1495 1495 1495 1495 1495 1495 1495 1495 1496 1496 1496 1496 1496 1496 1496 1496 1496 1496 1496 1496 1496 1496 1496 1496 1496 1496 1496 1496 1496 1496 1496 1496 1496 1496 1496 1496 1496 1496 1496 1496 1496 1496 1496 1496 1496 1496 1496 1496 1495 1495 1495 1495 1495 1495 1495 1494 1494 1494 1494 1494 1494 1493 1493 1493 1493
1497 1497 1496 1496 1496 1496 1496 1496 1496 1496 1496 1496 1496 1496 1496 1496 1496 1496 1496 1496 1496 1496 1496 1496 1496 1496 1496 1496 1496 1496 1496 1496 1496 1496 1497 1497 1497 1497 1497 1496 1496 1496 1496 1496 1496 1496 1496 1496 1496 1496 1496 1496 1496 1496 1496 1495 1495 1495 1495 1495 1494 1494 1494 1494 1494 1494 1493 1493 1493
1497 1497 1496 1496 1496 1496 1496 1496 1496 1496 1496 1496 1496 1496 1496 1496 1496 1496 1496 1496 1497 1497 1497 1497 1497 1497 1496 1496 1496 1496 1496 1496 1497 1497 1497 1497 1497 1497 1497 1497 1496 1496 1496 1496 1496 1497 1497 1497 1497 1497 1496 1496 1496 1496 1496 1496 1496 1495 1495 1495 1495 1495 1494 1494 1494 1494 1494 1493 1493
1497 1496 1496 1496 1496 1496 1496 1496 1496 1496 1496 1496 1496 1496 1496 1496 1497 1497 1497 1497 1497 1497 1497 1497 1497 1497 1497 1497 1497 1497 1497 1497 1497 1497 1497 1497 1497 1497 1497 1497 1496 1496 1496 1497 1497 1497 1497 1497 1497 1497 1497 1496 1496 1496 1496 1496 1496 1496 1496 1495 1495 1495 1495 1494 1494 1494 1494 1493 1493
1496 1496 1496 1496 1496 1496 1496 1496 1496 1496 1496 1496 1496 1496 1496 1497 1497 1497 1497 1497 1497 1497 1497 1497 1498 1498 1497 1497 1497 1498 1498 1498 1498 1497 1497 1497 1497 1497 1497 1497 1496 1496 1496 1497 1497 1497 1497 1497 1497 1497 1497 1497 1496 1496 1496 1496 1496 1496 1496 1496 1495 1495 1495 1495 1494 1494 1494 1494 1493
1496 1496 1496 1496 1496 1496 1496 1496 1496 1496 1496 1496 1496 1496 1496 1497 1497 1497 1497 1497 1497 1497 1498 1498 1498 1498 1498 1498 1498 1498 1498 1498 1498 1498 1498 1498 1497 1497 1497 1497 1497 1497 1497 1497 1497 1497 1497 1497 1497 1497 1497 1497 1497 1496 1496 1496 1496 1496 1496 1496 1496 1495 1495 1495 1495 1494 1494 1494 1494
1495 1495 1495 1495 1495 1495 1496 1496 1496 1496 1496 1496 1496 1496 1496 1496 1497 1497 1497 1497 1497 1498 1498 1498 1498 1498 1498 1498 1498 1498 1499 1499 1499 1498 1498 1498 1498 1497 1497 1497 1497 1497 1497 1497 1497 1497 1497 1497 1497 1497 1497 1497 1497 1497 1497 1497 1496 1496 1496 1496 1496 1496 1495 1495 1495 1495 1494 1494 1494
1495 1495 1495 1495 1495 1495 1495 1495 1495 1496 1496 1496 1496 1496 1496 1496 1497 1497 1497 1497 1497 1498 1498 1498 1498 1499 1499 1499 1499 1499 1499 1499 1499 1498 1498 1498 1498 1498 1498 1497 1497 1497 1497 1497 1497 1497 1498 1498 1498 1498 1498 1497 1497 1497 1497 1497 1497 1497 1497 1496 1496 1496 1496 1495 1495 1495 1494 1494 1494
1494 1494 1494 1494 1494 1495 1495 1495 1495 1495 1496 1496 1496 1496 1496 1496 1497 1497 1497 1497 1498 1498 1498 1498 1498 1499 1499 1499 1499 1499 1499 1499 1499 1499 1498 1498 1498 1498 1498 1498 1498 1497 1497 1497 1497 1498 1498 1498 1498 1498 1498 1497 1497 1497 1497 1497 1497 1497 1497 1496 1496 1496 1496 1496 1495 1495 1495 1494 1494
1494 1494 1494 1494 1494 1494 1495 1495 1495 1495 1495 1496 1496 1496 1496 1497 1497 1497 1497 1497 1498 1498 1498 1498 1498 1499 1499 1499 1499 1499 1499 1499 1499 1499 1499 1499 1499 1498 1498 1498 1498 1498 1497 1497 1497 1498 1498 1498 1498 1498 1497 1497 1497 1497 1497 1497 1497 1497 1497 1497 1497 1496 1496 1496 1496 1495 1495 1495 1495
1494 1494 1494 1494 1494 1494 1494 1494 1495 1495 1495 1496 1496 1496 1496 1497 1497 1497 1497 1497 1498 1498 1498 1498 1498 1498 1498 1499 1499 1499 1499 1499 1499 1499 1499 1499 1499 1499 1499 1498 1498 1498 1498 1497 1497 1497 1497 1498 1498 1497 1497 1497 1497 1497 1497 1497 1497 1497 1497 1497 1497 1497 1496 1496 1496 1496 1495 1495 1495
1493 1493 1493 1494 1494 1494 1494 1494 1495 1495 1495 1496 1496 1496 1496 1496 1497 1497 1497 1497 1497 1498 1498 1498 1498 1498 1498 1498 1498 1498 1498 1499 1499 1499 1499 1499 1499 1499 1499 1498 1498 1498 1498 1497 1497 1497 1497 1498 1498 1498 1497 1497 1497 1497 1497 1497 1497 1497 1497 1497 1497 1497 1496 1496 1496 1496 1495 1495 1494
1493 1493 1493 1493 1493 1494 1494 1494 1494 1495 1495 1495 1496 1496 1496 1496 1496 1497 1497 1497 1497 1497 1498 1498 1498 1498 1498 1498 1498 1498 1498 1498 1499 1499 1499 1499 1499 1499 1499 1498 1498 1498 1498 1497 1497 1497 1497 1498 1498 1498 1497 1497 1497 1497 1497 1497 1497 1497 1497 1497 1497 1497 1496 1496 1496 1495 1495 1494 1493
1492 1493 1493 1493 1493 1493 1494 1494 1494 1494 1495 1495 1495 1496 1496 1496 1496 1496 1497 1497 1497 1497 1497 1498 1498 1498 1498 1498 1498 1498 1498 1498 1499 1499 1499 1499 1499 1499 1499 1499 1498 1498 1498 1497 1497 1497 1497 1498 1498 1498 1497 1497 1497 1497 1497 1497 1497 1497 1497 1497 1497 1496 1496 1495 1495 1494 1494 1493 1492
1492 1492 1492 1493 1493 1493 1493 1494 1494 1494 1494 1495 1495 1495 1496 1496 1496 1496 1497 1497 1497 1497 1497 1498 1498 1498 1498 1498 1498 1498 1498 1498 1498 1498 1498 1498 1498 1499 1499 1499 1498 1498 1498 1498 1497 1497 1497 1497 1497 1497 1498 1498 1497 1497 1497 1497 1497 1497 1497 1497 1496 1496 1495 1494 1494 1493 1493 1492 1492
1492 1492 1492 1492 1493 1493 1493 1493 1494 1494 1494 1494 1495 1495 1495 1496 1496 1496 1496 1497 1497 1497 1497 1497 1497 1498 1498 1498 1498 1498 1498 1498 1498 1498 1498 1498 1498 1498 1498 1499 1499 1498 1498 1498 1498 1497 1497 1497 1497 1497 1497 1498 1498 1498 1497 1497 1497 1497 1496 1496 1495 1495 1494 1494 1493 1493 1492 1492 1491
1491 1492 1492 1492 1492 1492 1493 1493 1493 1493 1494 1494 1494 1495 1495 1495 1496 1496 1496 1496 1496 1497 1497 1497 1497 1497 1497 1497 1497 1497 1497 1497 1497 1497 1497 1498 1498 1498 1498 1498 1499 1499 1499 1498 1498 1497 1497 1497 1497 1497 1497 1497 1497 1497 1497 1497 1496 1496 1495 1495 1494 1494 1494 1493 1493 1492 1492 1491 1491
1491 1491 1491 1491 1492 1492 1492 1492 1493 1493 1493 1494 1494 1494 1495 1495 1495 1495 1496 1496 1496 1496 1496 1496 1496 1496 1496 1497 1497 1497 1497 1497 1497 1497 1497 1497 1497 1497 1498 1498 1498 1498 1499 1499 1498 1498 1497 1497 1497 1497 1497 1497 1497 1497 1496 1496 1495 1495 1494 1494 1494 1494 1493 1493 1493 1492 1492 1492 1491
1491 1491 1491 1491 1491 1491 1492 1492 1492 1493 1493 1493 1494 1494 1494 1494 1495 1495 1495 1495 1495 1495 1495 1495 1496 1496 1496 1496 1496 1496 1496 1496 1496 1496 1497 1497 1497 1497 1497 1498 1498 1498 1498 1498 1498 1497 1497 1497 1496 1496 1496 1496 1496 1496 1495 1495 1494 1494 1494 1494 1494 1494 1493 1493 1493 1492 1492 1492 1491
Wind_Speed
3 5 6 8 8 8 8 7 6 5 4 3 3 2 2 2 3 3 3 2 2 1 1 1 1 1 2 2 2 2 3 4 4 5 6 7 8 9 10 11 12 12 13 14 15 15 16 17 17 17 18 18 18 18 18 18 18 18 18 18 18 19 19 19 19 18 18 17 17
3 4 4 4 4 4 4 4 3 3 3 3 4 5 5 5 4 4 4 4 3 3 2 2 2 1 1 2 2 2 2 2 2 2 2 3 4 6 7 8 9 9 10 11 12 13 13 14 14 14 14 15 15 15 15 15 15 14 13 13 13 14 13 13 13 13 13 13 13
5 4 4 3 3 3 4 4 5 6 6 6 6 7 7 6 6 5 5 5 5 4 4 4 3 3 4 4 4 4 4 3 3 2 2 1 2 3 3 4 4 5 6 7 7 8 9 9 9 9 9 9 9 8 8 9 10 9 7 7 8 8 8 7 8 8 8 9 9
9 8 8 7 7 7 8 8 8 8 8 8 8 8 8 7 7 6 6 5 5 5 5 5 5 5 5 5 5 5 5 4 4 3 3 2 1 1 2 2 2 2 2 2 2 3 3 4 4 4 4 4 4 3 3 4 5 4 4 4 5 5 5 5 5 5 6 6 7
11 11 10 10 9 9 9 9 9 9 8 8 8 8 8 8 8 7 6 6 5 5 5 5 5 6 6 6 6 6 6 5 5 5 4 4 4 3 3 3 3 3 3 3 2 1 1 1 1 2 2 2 2 2 2 2 1 1 1 1 2 2 2 2 3 3 3 4 4
11 11 11 10 10 10 9 9 8 8 8 8 8 8 9 9 8 8 7 6 6 6 6 6 6 6 6 6 6 6 6 6 6 6 5 5 5 5 5 5 5 5 5 5 4 4 3 2 1 1 0 0 0 1 1 2 2 2 2 2 1 1 0 0 1 1 1 2 2
10 10 10 10 10 9 9 8 8 8 8 8 8 8 9 9 8 8 7 7 7 7 7 7 7 7 6 6 6 6 6 6 6 6 5 5 5 5 6 5 5 6 5 5 5 5 5 4 3 3 3 3 3 4 4 4 4 3 3 3 2 2 2 2 1 1 1 1 2
9 9 9 9 9 9 8 8 7 7 7 7 8 8 8 8 8 8 7 7 7 7 7 7 7 6 6 5 4 4 5 5 5 5 5 5 5 5 5 5 5 5 5 5 5 5 5 4 4 3 3 3 3 3 4 4 4 3 3 3 3 3 3 3 2 2 1 1 1
9 9 9 9 8 8 8 7 7 6 7 7 7 8 8 8 8 8 8 8 8 8 7 7 6 6 5 4 3 3 3 3 3 3 3 3 3 4 4 4 4 4 4 4 4 4 4 3 3 2 2 2 2 2 3 3 3 2 2 2 3 3 3 3 3 3 2 1 0
9 9 9 8 8 8 7 7 6 6 6 7 8 8 8 8 8 8 8 8 8 7 7 7 6 5 4 3 3 2 2 2 2 2 2 1 2 2 3 3 3 3 3 3 3 3 2 2 1 1 1 2 2 2 3 3 3 2 2 3 3 3 4 4 4 4 3 2 2
10 10 10 9 9 8 8 7 7 7 7 8 8 9 9 9 9 8 8 8 8 7 7 7 6 5 4 4 3 3 2 2 2 1 1 1 1 2 2 2 3 3 3 3 3 3 2 2 2 2 2 2 3 3 4 4 4 3 4 4 5 5 5 5 5 5 5 5 5
11 11 10 10 10 9 9 8 8 8 8 9 9 9 9 9 9 9 9 8 8 7 7 7 7 6 5 5 5 4 3 3 2 2 2 2 2 2 3 3 3 4 4 4 4 4 4 4 4 4 4 4 4 5 5 5 5 5 6 6 7 7 7 8 8 8 8 8 8
11 11 11 11 11 10 10 9 9 10 10 10 10 10 10 10 10 10 9 8 8 8 8 8 7 7 6 6 6 5 5 4 3 3 3 3 3 4 4 5 5 5 6 6 6 6 6 6 6 6 6 6 6 7 7 7 7 7 8 9 9 9 10 10 11 10 10 10 9
11 11 11 11 11 10 10 10 10 10 10 10 10 10 11 11 10 10 9 9 8 8 8 8 8 7 7 7 6 6 5 4 4 4 4 4 4 5 6 6 7 7 8 8 8 8 8 8 8 8 8 8 8 9 9 9 9 10 10 11 11 12 12 12 12 12 11 10 10
11 11 11 11 11 10 10 10 10 10 11 11 11 11 11 11 10 10 10 9 9 9 9 8 8 8 8 7 7 6 5 5 5 5 5 5 6 6 7 8 8 9 9 10 10 10 10 10 10 10 10 10 10 10 10 10 11 11 11 12 12 12 12 12 12 11 11 11 11
10 11 11 11 10 10 10 10 10 11 11 11 11 11 11 11 10 10 10 10 10 9 9 9 8 8 8 7 7 6 6 6 5 6 6 7 7 8 8 9 10 10 11 11 11 11 11 12 12 12 11 11 11 11 11 11 11 11 11 11 12 12 12 12 11 11 11 11 11
10 10 10 10 10 10 10 10 11 11 11 11 11 11 10 10 10 10 10 10 10 9 9 9 8 8 7 7 7 6 6 6 6 6 7 8 8 9 9 10 11 11 11 11 11 12 12 12 12 12 12 11 11 11 11 11 11 11 11 11 11 11 11 11 11 11 11 11 11
9 9 10 10 10 10 10 10 11 11 11 11 11 10 10 9 9 9 9 9 9 9 9 9 8 8 7 7 6 6 6 6 6 7 8 8 9 9 9 10 10 11 11 11 11 11 11 11 11 11 11 11 11 11 11 10 10 11 11 11 11 11 11 11 11 11 10 11 11
7 8 9 9 10 10 10 10 10 10 10 10 10 9 9 8 8 8 8 8 9 9 8 8 8 7 7 7 6 6 6 6 6 7 7 8 8 9 9 9 9 9 9 10 10 10 10 11 10 10 10 10 10 10 10 10 10 10 10 10 10 10 10 10 10 10 10 10 11
7 7 8 9 9 10 9 9 9 10 10 10 9 9 8 8 7 7 7 7 8 8 8 7 7 7 6 6 6 6 6 6 6 6 6 6 7 8 8 9 8 8 8 9 9 9 10 10 10 10 10 10 9 9 9 9 10 10 10 10 10 10 10 10 10 10 10 10 10
5 6 7 8 9 9 9 9 8 9 9 9 9 8 8 7 7 7 7 7 7 7 7 6 6 6 6 6 5 5 5 5 5 5 5 5 5 7 8 8 8 8 8 8 8 8 9 9 9 9 9 9 9 9 9 9 9 9 9 9 10 10 10 10 10 10 10 10 10
4 5 6 7 8 8 8 8 8 8 8 8 8 7 7 7 7 7 7 7 7 6 6 6 6 5 5 5 5 5 5 5 4 4 4 4 4 5 7 8 8 8 9 9 8 8 8 8 8 8 9 9 9 9 9 9 9 9 9 9 9 9 9 9 9 9 10 10 10
4 4 5 6 7 7 7 7 7 7 7 7 6 6 6 6 6 7 7 7 6 6 6 5 5 5 5 5 5 5 4 4 4 4 3 3 3 5 6 7 8 8 8 8 8 7 7 7 7 8 8 8 8 8 8 8 8 8 8 9 9 9 9 9 9 9 9 10 10
4 4 5 5 6 6 6 6 6 6 6 5 5 5 5 6 6 6 7 6 6 6 5 5 5 6 6 6 6 5 5 4 3 3 3 3 3 4 5 7 8 8 8 8 7 7 7 6 7 7 7 7 8 8 8 8 8 8 8 8 8 8 8 8 8 9 9 9 10
4 4 5 5 5 5 5 5 5 5 5 5 4 4 5 5 5 6 6 6 6 5 5 5 6 6 7 7 7 7 6 5 4 4 3 3 3 4 5 6 7 7 7 7 6 6 6 6 6 6 6 7 7 7 7 7 7 8 8 8 8 8 8 8 8 8 9 9 10
4 4 5 5 5 5 5 5 5 4 4 4 4 4 4 4 4 5 5 5 5 5 5 5 6 6 7 7 7 7 7 6 6 5 5 4 4 4 5 6 6 6 6 6 6 5 5 5 5 5 6 6 7 7 7 7 7 7 7 7 8 8 8 8 8 8 8 9 10
4 4 5 5 5 5 5 5 4 4 4 4 3 3 3 3 4 4 4 4 4 4 4 4 5 5 6 6 6 6 6 6 6 6 6 5 4 4 5 6 6 6 5 5 5 5 5 5 5 5 5 6 6 7 7 7 6 7 7 7 7 7 8 8 8 8 8 9 9
5 4 5 5 5 5 5 5 4 4 4 3 3 3 3 3 3 3 3 4 4 4 4 4 4 4 5 5 5 4 4 5 5 6 6 6 6 5 6 6 6 5 4 5 4 4 4 4 4 5 5 5 6 6 6 6 6 6 6 6 7 7 8 8 8 8 8 9 9
5 5 5 5 5 5 5 5 4 4 4 4 3 3 3 2 2 2 3 3 3 3 3 3 3 4 4 4 4 4 3 3 4 5 6 6 6 6 6 7 6 5 4 4 4 4 4 4 4 4 5 5 6 6 6 6 5 5 6 6 6 7 7 8 8 8 8 9 9
5 5 5 5 5 5 5 5 4 4 4 4 3 3 3 2 2 2 2 2 3 3 3 3 3 3 3 4 4 4 3 3 4 4 5 5 6 6 6 6 5 4 3 3 4 4 4 4 4 4 5 5 6 6 6 5 5 5 5 6 6 6 7 7 8 8 8 8 8
5 5 5 5 5 5 5 5 5 4 4 4 4 4 3 3 3 3 3 3 3 3 3 3 3 3 3 4 4 4 4 3 3 4 4 4 4 5 5 5 5 4 3 4 4 4 4 4 4 4 4 5 5 6 5 5 5 5 5 5 6 6 6 7 7 7 8 8 8
5 5 5 5 5 5 5 5 5 5 5 5 5 5 5 4 4 4 4 3 3 3 3 3 3 3 3 3 3 3 3 3 3 3 3 3 3 3 4 4 4 4 2 3 4 4 4 3 3 3 4 5 5 5 5 4 4 4 5 5 5 5 5 5 6 6 6 6 6
6 6 6 6 6 6 6 6 6 6 6 6 6 6 6 5 5 5 4 4 4 3 3 3 2 2 2 2 2 2 2 3 3 3 3 3 2 2 2 3 4 4 3 3 4 4 4 3 3 3 3 4 5 5 4 4 4 4 4 4 4 4 4 4 5 5 5 5 5
6 6 6 6 6 6 6 7 7 7 7 7 7 7 7 6 6 6 5 5 4 4 4 3 3 3 3 3 2 2 2 2 3 3 3 3 3 2 1 2 3 3 3 2 3 4 3 3 3 3 3 3 4 4 3 3 3 3 3 3 3 3 3 3 4 4 5 5 6
6 6 6 6 7 7 7 7 7 8 8 8 8 8 8 7 7 6 6 5 5 5 4 4 4 4 4 4 3 3 2 2 3 3 4 4 3 3 2 1 2 3 3 2 2 3 3 3 3 3 3 3 3 3 2 2 2 2 2 2 2 2 3 3 4 5 6 7 8
6 6 6 6 7 7 7 8 8 8 8 8 8 8 8 8 8 7 7 6 6 6 6 6 6 5 5 5 4 4 4 3 3 4 4 4 4 4 3 1 1 2 3 3 2 2 3 3 3 3 3 3 3 2 2 1 1 1 1 2 2 3 3 4 6 7 8 9 10
5 6 6 7 7 7 8 8 8 8 8 9 9 9 9 8 8 8 7 7 7 7 7 7 7 6 6 6 6 5 5 4 4 3 4 4 4 4 3 3 1 1 2 3 2 1 2 3 3 4 3 3 3 2 2 1 1 1 1 2 3 4 5 6 7 8 9 10 11
5 6 6 7 7 7 8 8 8 8 9 9 9 9 9 9 9 8 8 8 8 8 8 8 7 7 7 6 6 5 5 4 3 3 3 3 3 4 4 3 3 2 1 3 2 1 2 3 4 4 4 4 3 3 3 2 2 1 2 3 4 5 6 7 8 9 9 10 11
5 6 6 7 7 7 8 8 8 8 9 9 9 9 9 9 9 9 9 9 8 8 8 8 8 7 7 6 6 5 5 4 4 3 3 2 3 3 4 4 4 3 3 2 2 1 2 3 4 5 4 4 3 3 3 2 2 2 3 4 5 6 7 7 8 8 9 9 10
5 5 6 6 7 7 8 8 8 9 9 9 9 10 9 9 9 9 9 9 8 8 8 8 7 7 6 6 5 5 5 5 4 4 3 3 3 3 3 4 4 5 5 4 2 1 2 3 4 4 4 3 3 2 3 3 4 4 5 6 6 6 7 7 7 8 8 8 9
5 5 6 6 7 7 8 8 8 9 9 9 9 9 9 9 9 8 8 8 8 7 7 7 6 6 6 6 6 6 5 5 5 4 4 4 4 4 4 5 5 6 6 5 3 1 2 3 3 3 3 3 3 3 4 4 5 5 5 5 6 6 6 6 6 7 7 7 8
Wind_Direction
171 189 199 204 207 209 212 215 219 225 232 237 227 203 172 150 144 148 159 171 182 194 207 216 227 244 255 257 251 241 237 239 242 246 248 249 249 250 252 253 254 254 255 256 257 259 259 260 261 262 263 263 264 264 265 266 266 267 267 268 269 270 271 272 274 275 275 273 271
146 167 185 197 207 213 214 210 199 188 178 169 156 148 142 141 143 147 149 147 141 133 124 121 132 134 130 131 132 132 138 152 166 189 211 227 236 240 242 244 246 247 249 251 253 254 256 257 258 259 260 261 262 263 264 266 267 268 270 271 273 275 277 280 283 284 284 283 280
114 123 132 142 149 149 146 140 134 132 131 133 133 131 129 131 132 131 128 123 120 116 110 106 110 111 108 103 103 105 108 115 122 126 134 171 211 222 224 226 230 236 240 243 246 249 251 253 255 255 257 259 260 260 263 269 272 275 280 284 285 288 292 297 298 298 299 299 297
97 100 103 106 110 114 116 116 117 118 120 121 120 119 118 118 118 114 110 106 102 98 96 94 97 100 101 96 93 91 93 96 100 103 104 112 132 157 169 170 167 174 192 212 222 232 241 247 253 257 261 266 269 270 275 281 284 291 299 301 301 306 312 317 314 311 310 311 308
93 95 98 101 104 107 109 111 112 113 114 114 112 111 110 108 105 102 98 94 90 89 90 90 88 89 89 86 81 76 74 75 80 85 89 91 98 107 113 112 106 100 96 101 105 116 148 219 253 267 274 279 285 287 283 281 302 335 337 323 327 327 331 334 325 317 312 311 308
91 95 98 100 102 104 106 106 107 107 108 108 107 106 104 101 98 94 90 87 86 84 83 80 77 74 72 69 64 60 57 57 61 67 73 79 87 93 96 95 90 84 80 79 80 81 85 90 85 89 130 167 164 148 133 120 113 105 99 96 92 89 74 58 353 331 327 326 324
92 94 97 100 101 102 102 101 100 100 100 103 104 103 100 96 93 90 86 83 80 76 73 70 66 62 58 54 50 46 43 42 44 48 56 65 73 79 83 83 79 73 67 65 64 65 68 75 79 85 96 108 114 116 117 118 118 115 110 112 116 118 117 107 92 69 44 16 353
92 93 95 96 98 98 97 95 94 94 96 99 101 100 97 93 90 87 83 80 76 73 69 66 62 57 52 47 41 36 31 30 30 35 43 53 62 68 71 73 71 67 61 56 53 51 53 60 66 74 83 99 110 117 119 119 119 118 117 119 119 117 117 113 110 106 92 41 354
89 90 91 92 93 94 93 92 92 93 95 97 98 96 93 90 87 84 82 79 76 74 71 68 64 59 53 46 39 31 27 22 19 20 29 42 55 63 68 72 75 75 71 65 59 55 51 48 51 61 77 96 115 120 115 113 111 113 119 122 123 125 129 127 124 124 123 123 146
88 89 90 90 91 91 92 92 93 94 94 94 94 92 90 87 85 84 81 79 79 77 74 71 67 61 54 49 46 44 42 33 21 17 21 41 61 70 74 80 87 91 90 86 81 78 72 65 62 69 85 103 122 121 112 107 108 119 129 129 131 134 134 127 121 119 119 119 117
90 91 91 91 90 90 90 92 94 94 93 92 91 90 89 87 86 84 83 82 80 80 78 75 70 64 58 55 56 60 66 69 65 61 68 92 102 104 103 105 107 109 108 105 104 103 106 113 123 125 124 120 122 117 111 109 114 121 124 121 120 123 123 118 113 110 106 103 101
93 93 94 93 92 91 92 93 94 94 94 93 93 93 92 90 87 85 83 81 80 79 78 76 71 67 63 61 62 62 64 70 80 91 104 117 125 126 125 125 123 122 121 118 118 119 120 120 121 121 120 117 113 109 105 106 110 112 112 111 111 111 111 109 106 102 99 97 98
95 95 96 95 95 96 97 98 98 98 98 98 97 96 94 91 88 85 82 80 79 78 77 76 73 70 68 67 65 64 65 69 79 92 105 111 116 119 121 121 120 120 120 118 118 118 117 115 113 112 111 110 108 106 105 106 108 109 109 108 109 107 105 103 101 99 98 98 97
95 95 96 96 97 98 99 100 101 101 101 100 98 96 93 91 89 88 85 82 80 79 78 78 76 74 72 71 71 71 72 77 84 95 101 106 110 114 115 116 116 115 115 113 113 112 111 111 110 110 110 109 109 108 108 108 109 109 108 107 106 104 102 100 99 98 96 95 93
95 95 96 96 97 98 99 99 100 101 101 100 98 96 94 93 92 90 88 84 82 80 79 78 76 75 73 73 73 75 78 83 90 96 101 105 109 112 114 114 114 112 111 110 110 110 110 110 109 110 110 109 109 108 108 108 107 106 106 104 102 100 98 96 94 92 90 86 83
95 96 97 97 97 96 96 96 97 98 98 98 97 96 94 93 92 90 88 85 83 82 80 78 77 76 74 73 73 75 78 84 90 97 102 106 109 111 112 112 110 109 109 109 109 110 110 110 109 109 108 108 107 107 106 105 104 103 101 99 97 94 92 89 87 85 81 78 75
94 96 97 97 95 94 93 92 92 92 93 93 93 92 92 91 91 91 90 88 85 84 82 80 79 77 76 75 75 76 79 84 92 97 101 104 107 109 110 110 109 108 108 109 110 111 110 110 109 108 107 107 106 106 105 104 102 101 98 95 93 90 88 85 82 80 77 75 72
93 95 96 95 94 91 89 87 87 87 87 87 88 89 90 91 93 95 95 95 92 88 85 83 81 78 77 77 79 80 82 86 92 96 99 102 105 108 109 109 109 109 110 111 111 110 110 108 108 107 107 106 105 104 103 101 99 97 95 92 90 88 85 83 80 78 75 73 70
96 97 97 96 94 91 88 86 85 86 86 87 87 88 90 92 95 98 100 101 98 94 89 85 82 80 78 78 80 82 84 85 88 92 98 104 108 111 111 110 111 111 111 111 110 109 108 107 107 106 105 104 102 100 99 97 96 94 92 89 87 85 82 80 78 75 72 69 66
102 102 101 99 96 94 91 90 89 89 89 89 89 89 90 93 97 101 103 103 102 99 94 89 86 83 80 80 80 82 84 86 86 92 101 110 116 117 117 115 114 114 112 109 107 106 106 107 107 105 104 101 98 96 95 93 91 89 88 86 84 81 79 77 74 72 69 66 63
110 108 105 102 100 98 96 95 94 93 92 92 92 92 94 97 102 105 107 107 106 102 98 94 90 86 82 82 82 85 88 91 93 96 105 116 124 126 126 124 122 118 113 108 105 104 105 106 105 103 101 98 95 92 90 89 87 86 85 83 81 79 77 74 72 69 66 64 61
120 116 110 106 103 102 101 99 98 96 95 95 96 98 100 102 105 107 109 108 106 102 99 97 93 88 86 85 87 91 97 101 102 103 107 115 127 133 133 130 127 122 117 113 111 110 108 106 104 101 98 96 93 90 88 86 84 83 82 80 79 77 75 73 70 68 65 62 59
137 127 118 112 108 106 105 104 102 100 99 99 101 102 104 104 105 105 104 103 101 100 99 97 95 92 90 90 92 95 100 107 112 112 112 115 123 130 131 128 124 121 121 121 119 116 111 106 103 100 98 95 92 89 86 84 81 80 79 78 77 75 72 70 68 66 64 61 59
154 142 130 121 116 114 113 110 108 106 104 104 104 104 103 103 103 101 100 98 97 98 100 100 98 97 95 93 92 92 96 105 117 122 124 123 124 125 124 121 117 116 117 117 116 112 108 104 102 100 98 95 91 87 84 81 79 77 76 75 75 73 71 69 67 64 62 60 57
167 155 144 134 129 126 124 120 116 112 111 110 109 106 104 103 101 99 97 97 98 100 102 102 102 101 98 94 92 89 89 94 104 117 127 132 136 132 126 117 111 110 110 110 111 108 106 104 101 99 98 95 92 87 83 79 77 76 75 74 74 73 71 69 67 64 61 58 55
174 165 154 146 141 138 135 132 127 124 121 121 117 113 108 106 103 101 100 100 101 104 107 108 107 105 102 99 95 92 89 89 93 100 110 121 138 144 136 120 108 105 105 105 106 107 106 105 103 100 98 96 92 87 83 79 76 75 75 74 73 72 70 69 66 63 60 57 53
181 172 161 154 149 146 144 142 139 137 135 132 127 121 117 113 109 106 103 102 103 106 109 111 113 113 110 106 103 99 95 92 91 92 93 98 112 127 127 115 104 102 103 103 104 106 106 105 103 101 98 96 93 88 83 78 76 75 75 75 74 73 70 69 66 63 60 56 52
186 177 168 160 155 153 151 150 150 148 146 142 138 134 129 124 118 112 109 109 109 109 112 115 119 121 119 118 118 116 110 103 97 91 86 82 82 88 97 98 95 96 100 104 104 105 106 104 102 101 99 97 93 89 84 80 77 75 76 76 76 75 73 71 67 64 60 56 52
189 182 173 167 161 160 159 158 157 155 154 151 149 148 144 141 134 129 126 125 122 120 121 125 130 132 133 136 138 138 135 126 111 96 84 74 68 68 75 83 88 91 98 106 107 109 109 108 106 105 102 100 95 91 86 82 79 79 79 78 78 77 75 72 68 64 60 55 50
189 185 178 174 170 168 167 166 163 161 160 160 159 161 164 165 163 159 154 150 144 143 143 145 144 147 150 154 156 159 158 150 128 106 89 76 65 60 63 71 79 89 106 116 116 117 118 116 115 112 110 105 100 93 88 85 83 81 80 79 77 75 73 71 67 63 58 52 46
189 186 183 179 177 175 174 172 170 169 167 169 171 175 179 182 185 187 185 178 173 168 165 162 160 160 162 163 165 166 164 155 136 119 104 91 74 63 60 61 64 76 106 126 123 121 122 121 120 117 112 106 99 93 87 84 82 80 78 76 73 71 70 67 65 61 56 50 42
188 186 185 183 181 181 180 179 177 176 176 178 180 183 187 190 194 196 195 192 189 185 182 180 177 176 174 171 167 162 156 148 139 132 124 113 95 79 66 59 55 57 85 124 122 118 117 117 115 112 107 102 95 90 85 82 80 80 77 73 70 67 65 64 63 60 56 49 40
187 186 185 184 184 184 184 184 183 183 184 184 186 188 190 195 198 199 199 199 199 201 201 201 202 200 197 191 178 162 152 146 145 146 146 140 126 108 83 61 50 42 53 106 115 114 112 113 112 109 103 100 94 91 87 85 83 81 77 71 65 62 59 59 57 56 53 47 39
185 185 185 184 185 185 186 187 187 188 188 188 190 191 192 194 197 200 203 205 206 208 212 214 216 217 217 214 207 191 174 165 166 167 169 168 162 153 123 68 50 34 31 70 108 114 114 119 120 115 109 103 100 95 93 90 85 79 74 66 58 54 52 52 52 49 45 40 35
183 183 183 185 186 187 188 189 189 189 189 190 191 192 193 194 195 198 201 205 208 213 216 218 219 220 221 220 220 218 211 199 190 185 185 184 182 176 161 100 53 27 16 27 95 115 121 132 133 126 115 109 104 101 98 96 85 78 70 59 49 43 42 43 42 38 35 32 29
181 183 183 185 186 187 189 189 189 190 190 191 192 193 193 194 195 197 200 203 208 214 218 220 221 222 224 227 228 228 225 217 204 194 191 190 185 180 172 148 79 29 8 2 50 106 124 147 148 139 125 117 112 110 112 113 107 92 74 56 39 34 34 33 31 30 28 25 23
181 183 184 186 187 188 189 189 190 190 191 192 192 193 193 194 195 197 200 203 207 212 216 218 220 222 224 228 229 229 226 221 212 200 193 190 185 181 177 175 162 47 359 350 2 72 128 159 163 154 141 131 131 135 142 148 148 119 83 51 37 32 29 27 24 22 21 20 19
183 184 185 186 187 188 188 189 189 190 191 192 193 194 194 194 195 196 198 202 205 209 212 214 215 217 219 222 225 226 226 223 218 212 202 194 190 186 184 185 192 208 293 327 340 18 135 164 169 163 152 141 140 145 154 158 152 118 71 45 35 29 27 23 20 17 15 14 14
186 186 186 187 188 188 188 189 190 191 191 193 193 194 194 194 195 196 198 201 204 207 209 211 212 213 215 217 220 224 227 227 224 222 219 211 205 201 197 197 203 214 239 278 316 12 126 153 158 155 148 138 131 131 134 131 115 85 57 40 31 26 22 19 16 13 10 8 7
188 188 188 187 188 188 189 189 190 192 192 193 194 194 194 195 196 197 199 202 204 207 209 211 212 213 214 214 217 223 226 229 228 227 226 225 222 219 214 212 214 220 231 249 281 30 101 124 127 126 122 117 99 84 77 78 73 60 46 37 29 23 17 13 10 6 3 360 358
193 192 191 191 190 190 190 191 192 193 194 194 194 195 196 197 198 199 201 203 205 208 211 213 216 217 217 218 219 221 224 228 229 229 229 229 229 228 227 223 222 223 228 239 258 354 69 87 86 82 77 71 61 50 43 43 44 41 37 32 25 19 11 4 360 356 353 350 348